Regional Weather Roundup
Issued by NWS

Home | Current Version | Previous Version | Text Only | Print | Product List | Glossary Off
Versions: 1 2 3 4 5 6 7 8 9 10 11 12 13 14 15 16 17 18 19 20 21 22 23 24 25 26 27

000
ASUS45 KPSR 190710
RWRAZ

ARIZONA HOURLY REGIONAL WEATHER ROUNDUP
NATIONAL WEATHER SERVICE PHOENIX AZ
1200 AM MST SUN FEB 19 2017

NOTE: FAIR INDICATES FEW OR NO CLOUDS BELOW 12,000 FEET WITH NO
SIGNIFICANT WEATHER AND/OR OBSTRUCTIONS TO VISIBILITY.

AZZ001>003-036-190800-
NORTHWEST ARIZONA

CITY           SKY/WX    TMP DP  RH WIND       PRES   REMARKS
BULLHEAD CITY  CLOUDY    55  55 100 S10       29.67R
KINGMAN        MOCLDY    46  42  86 NW5       29.68R
$$

AZZ004>008-015-016-018-190800-
NORTH CENTRAL ARIZONA

CITY           SKY/WX    TMP DP  RH WIND       PRES   REMARKS
GRAND CANYON   CLOUDY    36  36 100 CALM      29.73S FOG
WILLIAMS       CLOUDY    36  32  87 S7        29.73R WCI  30
PRESCOTT       CLOUDY    36  36 100 SE12      29.74R WCI  28
FLAGSTAFF      LGT SNOW  32  31  96 SW9       29.74S FOG     WCI  24
PAYSON         MIX PCPN  36  36 100 VRB5      29.82R WCI  32
PAGE           MOCLDY    44  38  79 W3        29.68S
$$

AZZ009>014-017-190800-
NORTHEAST ARIZONA

CITY           SKY/WX    TMP DP  RH WIND       PRES   REMARKS
WINSLOW        CLOUDY    44  40  85 S10       29.73S
SAINT JOHNS    CLOUDY    44  32  62 S10       29.75R
WINDOW ROCK    CLOUDY    43  29  57 SE7       29.77R
SHOW LOW       LGT SNOW  32  30  93 S17G23    29.77S WCI  21
$$

AZZ023-190800-
GREATER PHOENIX AREA

CITY           SKY/WX    TMP DP  RH WIND       PRES   REMARKS
PHOENIX        LGT RAIN  51  49  92 SE8       29.76R
BUCKEYE        CLOUDY    50  50 100 E10       29.75R
LUKE AFB       CLOUDY    52 N/A N/A E10       29.75R
DEER VALLEY    LGT RAIN  49  49 100 SE10      29.76R
SCOTTSDALE     LGT RAIN  50  47  89 SE6       29.80R
MESA-GATEWAY   LGT RAIN  50  46  87 SE5       29.80R
$$

AZZ027-028-190800-
SOUTHWEST MARICOPA COUNTY AND PINAL COUNTY

CITY           SKY/WX    TMP DP  RH WIND       PRES   REMARKS
CASA GRANDE    NOT AVBL
GILA BEND      CLOUDY    53  46  78 SE8       29.73R
$$

AZZ503-504-507>509-190800-
SOUTHEAST ARIZONA

CITY           SKY/WX    TMP DP  RH WIND       PRES   REMARKS
TUCSON         CLOUDY    50  38  63 S15       29.82R
DAVIS-MONTHAN  CLOUDY    49  38  64 CALM      29.81R
NOGALES        CLOUDY    41  38  89 S7        29.81S
SIERRA VISTA   MOCLDY    38  35  88 CALM      29.80S
DOUGLAS        PTCLDY    40  36  86 S16       29.84S WCI  31
SAFFORD        CLOUDY    47  36  65 SE14      29.80R
$$

AZZ020-021-025-026-031-190800-
SOUTHWEST ARIZONA

CITY           SKY/WX    TMP DP  RH WIND       PRES   REMARKS
YUMA           CLOUDY    54  52  93 S8        29.72R
$$

CAZ031-033-041-043-047-048-061-190800-
SOUTHERN CALIFORNIA

CITY           SKY/WX    TMP DP  RH WIND       PRES   REMARKS
DOWNTOWN L.A.  CLEAR     54  51  90 CALM      29.73R
L.A. AIRPORT   PTCLDY    54  51  90 E3        29.74R
SAN DIEGO      MOCLDY    57  49  74 NW10      29.78R
BURBANK        PTCLDY    50  47  89 N3        29.73R
ONTARIO        CLOUDY    53  50  89 SW8       29.73R
RIVERSIDE      CLOUDY    52  52 100 CALM      29.74R
PALM SPRINGS   CLOUDY    55  55 100 NE3       29.74R
EL CENTRO NAS  MOCLDY    54  51  90 SE10      29.72R
IMPERIAL       CLEAR     55  53  93 S8        29.70R
BLYTHE         LGT RAIN  54  54 100 S7        29.70R
NEEDLES        LGT RAIN  55  52  89 SE7       29.68R
$$

NVZ020-UTZ003-190800-
SOUTHERN NEVADA-UTAH

CITY           SKY/WX    TMP DP  RH WIND       PRES   REMARKS
LAS VEGAS      MOCLDY    51  48  89 CALM      29.65R
SALT LAKE CITY CLOUDY    49  34  56 S15       29.59F
$$

NMZ009-TXZ055-190800-
NEW MEXICO-WEST TEXAS

CITY           SKY/WX    TMP DP  RH WIND       PRES   REMARKS
ALBUQUERQUE    PTCLDY    45  29  53 N6        29.79R
EL PASO        CLOUDY    53  29  39 W20G26    29.81F
$$


........................KEY........................
SKY/WX - SKY CONDITION/WEATHER
TMP    - TEMPERATURE IN FAHRENHEIT
DP     - DEW POINT IN FAHRENHEIT
RH     - RELATIVE HUMIDITY IN PERCENT
WIND   - DIRECTION AND SPEED IN MILES PER HOUR (MPH)
VRB    - VARIABLE WIND DIRECTION
PRES   - MEAN SEA LEVEL PRESSURE IN INCHES OF MERCURY
         F - FALLING PRESSURE   R - RISING PRESSURE
         S - STEADY PRESSURE
VSB    - VISIBILITY IN MILES
HX     - HEAT INDEX IN FAHRENHEIT
WCI    - WIND CHILL INDEX IN FAHRENHEIT
TC     - TEMPERATURE IN CELSIUS WHICH IS ALSO KNOWN AS
         TEMPERATURE IN CENTIGRADE
AFB    - AIR FORCE BASE
         LUKE AFB IS LUKE AIR FORCE BASE
         DAVIS-MONTHAN IS DAVIS-MONTHAN AIR FORCE BASE
NAS    - NAVAL AIR STATION
         EL CENTRO NAS IS EL CENTRO NAVAL AIR STATION
N/A    - NOT AVAILABLE





USA.gov is the U.S. government's official web portal to all federal, state and local government web resources and services.